STARLINK-37197

Last updated on Sun Apr 12 2026 00:02:09 GMT+0000 (Coordinated Universal Time)

1 68389U 26063K 26101.50002315 -.00164520 00000+0 -11206-2 0 9998 2 68389 97.2841 242.8521 0001272 75.9437 279.6059 15.75250168 3739
UTC large
Height (km)
Speed (km/s)
/
Latitude / Longitude
Inclination (degrees)
Orbital Period (minutes)
Azimuth
Elevation
Range (km)
Doppler Factor

Next 0 passes for location: London (51.5072 / 0.1276)

Sorry there are no passes over London.
STARLINK-37197